EW3739 Weather Reports


Display with metric or nautical units.
time (UTC)temp
F
wind
direction
speed
MPH
gust
MPH
rain 1hr
in
rain 24hr
in
rain mn
in
humidity
%
barometer
mb
20191015140058 74 345 0.0 2.0 0.00 0.00 0.00 97 1017.3
20191015134535 73 347 1.0 3.0 0.00 0.00 0.00 97 1017.4
20191015133055 72 164 0.0 0.0 0.00 0.00 0.00 97 1017.6
20191015131519 71 164 0.0 2.0 0.00 0.00 0.00 97 1017.7
20191015130052 71 164 0.0 2.0 0.00 0.00 0.00 97 1017.3
20191015124538 70 164 0.0 2.0 0.00 0.00 0.00 97 1017.3
20191015123017 69 164 0.0 1.0 0.00 0.00 0.00 96 1017.2
20191015121531 68 164 0.0 0.0 0.00 0.00 0.00 95 1017.1
20191015120039 68 164 0.0 0.0 0.00 0.00 0.00 95 1017.2
20191015114601 67 164 0.0 0.0 0.00 0.00 0.00 94 1017.2
20191015113011 67 164 0.0 0.0 0.00 0.00 0.00 94 1017.2
20191015111534 67 164 0.0 0.0 0.00 0.00 0.00 94 1017.0
20191015110020 67 164 0.0 0.0 0.00 0.00 0.00 94 1017.0
20191015104512 67 164 0.0 0.0 0.00 0.00 0.00 94 1017.1
20191015103018 67 164 0.0 1.0 0.00 0.00 0.00 94 1017.0
20191015101516 67 164 0.0 0.0 0.00 0.00 0.00 94 1016.8
20191015100009 67 164 0.0 0.0 0.00 0.00 0.00 94 1016.7
20191015094512 68 164 0.0 0.0 0.00 0.00 0.00 94 1016.6
20191015093018 68 164 0.0 0.0 0.00 0.00 0.00 94 1016.5
20191015091502 68 164 0.0 0.0 0.00 0.00 0.00 94 1016.4
20191015090236 68 164 0.0 0.0 0.00 0.00 0.00 94 1016.4
20191015084630 68 164 0.0 0.0 0.00 0.00 0.00 93 1016.5
20191015083153 68 164 0.0 0.0 0.00 0.00 0.00 93 1016.5
20191015081855 68 164 0.0 0.0 0.00 0.00 0.00 94 1016.6
20191015080256 68 164 0.0 0.0 0.00 0.00 0.00 93 1016.7
20191015074713 68 164 0.0 0.0 0.00 0.00 0.00 93 1016.8
20191015073110 69 164 0.0 0.0 0.00 0.00 0.00 93 1016.8
20191015071646 69 164 0.0 0.0 0.00 0.00 0.00 93 1017.0
20191015070303 69 164 0.0 0.0 0.00 0.00 0.00 93 1016.9
20191015064610 69 164 0.0 0.0 0.00 0.00 0.00 93 1017.0
20191015063139 69 164 0.0 0.0 0.00 0.00 0.00 92 1017.3
20191015061624 69 164 0.0 0.0 0.00 0.00 0.00 92 1017.4
20191015060138 70 164 0.0 0.0 0.00 0.00 0.00 92 1017.4
20191015054608 70 164 0.0 0.0 0.00 0.00 0.00 92 1017.4
20191015053104 70 164 0.0 0.0 0.00 0.00 0.00 91 1017.6
20191015051614 70 164 0.0 0.0 0.00 0.00 0.00 91 1017.6
20191015050200 70 164 0.0 0.0 0.00 0.00 0.00 91 1017.6
20191015044636 71 164 0.0 0.0 0.00 0.00 0.00 90 1017.8
20191015043107 71 164 0.0 0.0 0.00 0.00 0.00 90 1017.7
20191015041616 71 164 0.0 0.0 0.00 0.00 0.00 89 1017.7
20191015040049 72 164 0.0 0.0 0.00 0.00 0.00 89 1017.8
20191015034539 72 164 0.0 0.0 0.00 0.00 0.00 89 1017.7
20191015033055 72 164 0.0 0.0 0.00 0.00 0.00 87 1017.7
20191015031553 73 164 0.0 0.0 0.00 0.00 0.00 87 1017.8
20191015030038 73 164 0.0 0.0 0.00 0.00 0.00 87 1017.8
20191015024557 73 164 0.0 0.0 0.00 0.00 0.00 86 1017.8
20191015023028 74 164 0.0 0.0 0.00 0.00 0.00 85 1017.8
20191015021536 74 164 0.0 0.0 0.00 0.00 0.00 85 1017.6
20191015020055 74 164 0.0 0.0 0.00 0.00 0.00 85 1017.4
20191015014536 75 164 0.0 1.0 0.00 0.00 0.00 84 1017.2
20191015013045 75 164 0.0 1.0 0.00 0.00 0.00 84 1017.3
20191015011559 75 164 0.0 1.0 0.00 0.00 0.00 84 1017.4
20191015010041 75 164 0.0 1.0 0.00 0.00 0.00 83 1017.2
20191015003028 76 164 0.0 1.0 0.00 0.00 0.00 82 1017.1
20191015001544 76 164 0.0 1.0 0.00 0.00 0.00 82 1016.9
20191015000049 77 166 0.0 3.0 0.00 0.00 0.00 82 1016.7
20191014234546 77 170 0.0 3.0 0.00 0.00 0.00 82 1016.6
20191014233028 77 139 0.0 4.0 0.00 0.00 0.00 82 1016.6
20191014231523 78 169 0.0 2.0 0.00 0.00 0.00 81 1016.6
20191014230128 78 169 0.0 4.0 0.00 0.00 0.00 80 1016.5
20191014224538 79 144 0.0 6.0 0.00 0.00 0.00 79 1016.4
20191014223159 79 164 0.0 4.0 0.00 0.00 0.00 78 1016.3
20191014221535 80 153 0.0 4.0 0.00 0.00 0.00 78 1016.3
20191014220019 80 293 0.0 2.0 0.00 0.00 0.00 77 1016.2
20191014214529 80 135 1.0 6.0 0.00 0.00 0.00 78 1016.1
20191014213028 80 151 1.0 8.0 0.00 0.00 0.00 76 1016.0
20191014211604 80 168 0.0 4.0 0.00 0.00 0.00 78 1016.0
20191014210049 80 41 1.0 4.0 0.00 0.00 0.00 78 1016.1
20191014204615 80 138 1.0 6.0 0.00 0.00 0.00 77 1016.1
20191014203027 81 154 0.0 6.0 0.00 0.00 0.00 75 1015.8
20191014201536 82 122 0.0 4.0 0.00 0.00 0.00 77 1015.7
20191014200035 82 350 0.0 5.0 0.00 0.00 0.00 76 1015.5
20191014194514 84 102 1.0 6.0 0.00 0.00 0.00 74 1015.4
20191014193029 84 39 1.0 4.0 0.00 0.00 0.00 72 1015.5
20191014191517 85 61 1.0 4.0 0.00 0.00 0.00 73 1015.5
20191014190054 83 148 0.0 5.0 0.00 0.00 0.00 77 1015.6
20191014184508 82 156 2.0 7.0 0.00 0.00 0.00 76 1015.7
20191014183036 82 41 2.0 5.0 0.00 0.00 0.00 79 1015.8
20191014180025 82 234 0.0 4.0 0.00 0.00 0.00 78 1016.1
20191014174506 82 173 0.0 2.0 0.00 0.00 0.00 76 1016.4
20191014173003 83 308 0.0 2.0 0.00 0.00 0.00 77 1016.6
20191014171503 83 152 2.0 7.0 0.00 0.00 0.00 78 1016.7
20191014170332 82 171 1.0 6.0 0.00 0.00 0.00 81 1016.8
20191014164722 81 162 2.0 5.0 0.00 0.00 0.00 82 1016.9
20191014163241 79 6 1.0 4.0 0.00 0.00 0.00 88 1017.2
20191014161617 79 143 0.0 3.0 0.00 0.00 0.00 87 1017.5
20191014160139 80 60 0.0 1.0 0.00 0.00 0.00 86 1017.5
20191014154716 81 41 0.0 4.0 0.00 0.00 0.00 86 1017.6
20191014153136 81 116 0.0 3.0 0.00 0.00 0.00 86 1017.5
20191014151746 81 205 1.0 4.0 0.00 0.00 0.00 86 1017.5
20191014150205 81 162 0.0 1.0 0.00 0.00 0.00 87 1017.6
20191014144640 81 163 1.0 2.0 0.00 0.00 0.00 79 1017.7
20191014143132 81 160 0.0 2.0 0.00 0.00 0.00 80 1017.8
20191014141710 81 160 0.0 2.0 0.00 0.00 0.00 82 1017.9